TimeEST,TemperatureF,Dew PointF,Humidity,Sea Level PressureIn,VisibilityMPH,Wind Direction,Wind SpeedMPH,Gust SpeedMPH,PrecipitationIn,Events,Conditions,WindDirDegrees,DateUTC
12:15 AM,48.2,39.2,71,30.31,10.0,NNE,6.9,-,N/A,Rain,Rain,30,2012-11-15 05:15:00
12:35 AM,46.4,41.0,81,30.29,10.0,NNE,6.9,-,N/A,,Overcast,20,2012-11-15 05:35:00
12:55 AM,46.4,41.0,81,30.29,10.0,NNE,5.8,-,N/A,,Overcast,20,2012-11-15 05:55:00
1:15 AM,46.4,41.0,81,30.29,10.0,NNE,8.1,-,N/A,,Overcast,30,2012-11-15 06:15:00
1:35 AM,46.4,41.0,81,30.28,10.0,NNE,8.1,-,N/A,,Overcast,30,2012-11-15 06:35:00
1:55 AM,46.4,41.0,81,30.27,10.0,NNE,10.4,-,N/A,,Overcast,30,2012-11-15 06:55:00
2:15 AM,46.4,39.2,76,30.28,10.0,NE,10.4,-,N/A,,Overcast,40,2012-11-15 07:15:00
2:35 AM,46.4,39.2,76,30.28,10.0,NNE,9.2,-,N/A,,Overcast,30,2012-11-15 07:35:00
2:55 AM,46.4,39.2,76,30.27,10.0,NE,11.5,18.4,N/A,,Overcast,40,2012-11-15 07:55:00
3:15 AM,44.6,39.2,81,30.26,10.0,NNE,10.4,-,N/A,,Light Drizzle,30,2012-11-15 08:15:00
3:35 AM,44.6,39.2,81,30.25,10.0,NNE,9.2,-,N/A,,Overcast,30,2012-11-15 08:35:00
3:55 AM,44.6,37.4,76,30.26,10.0,North,10.4,-,N/A,,Overcast,10,2012-11-15 08:55:00
4:15 AM,44.6,41.0,87,30.23,10.0,NNE,11.5,18.4,N/A,Rain,Rain,30,2012-11-15 09:15:00
4:35 AM,42.8,41.0,93,30.23,10.0,NNE,9.2,16.1,N/A,Rain,Light Rain,20,2012-11-15 09:35:00
4:55 AM,42.8,41.0,93,30.26,7.0,Calm,Calm,-,0.01,Rain-Thunderstorm,Light Thunderstorms and Rain,0,2012-11-15 09:55:00
5:15 AM,42.8,41.0,93,30.23,2.5,NNE,11.5,-,0.11,Rain,Heavy Rain,30,2012-11-15 10:15:00
5:55 AM,42.8,41.0,93,30.23,7.0,NNE,12.7,17.3,0.13,,Overcast,30,2012-11-15 10:55:00
6:15 AM,42.8,41.0,93,30.23,7.0,North,9.2,-,N/A,,Overcast,10,2012-11-15 11:15:00
6:35 AM,42.8,41.0,93,30.26,10.0,NW,5.8,-,N/A,,Overcast,320,2012-11-15 11:35:00
6:55 AM,42.8,41.0,93,30.29,10.0,NW,9.2,-,N/A,,Drizzle,310,2012-11-15 11:55:00
7:15 AM,42.8,41.0,93,30.27,10.0,NNW,10.4,17.3,N/A,,Drizzle,340,2012-11-15 12:15:00
7:35 AM,41.0,41.0,100,30.27,7.0,North,8.1,16.1,N/A,,Drizzle,350,2012-11-15 12:35:00
7:55 AM,41.0,41.0,100,30.28,5.0,North,9.2,-,N/A,Rain,Rain,350,2012-11-15 12:55:00
8:15 AM,41.0,41.0,100,30.29,5.0,NW,6.9,-,N/A,Rain,Light Rain,320,2012-11-15 13:15:00
8:35 AM,41.0,41.0,100,30.33,3.0,WNW,10.4,-,0.03,Rain,Heavy Rain,300,2012-11-15 13:35:00
8:55 AM,41.0,41.0,100,30.33,2.5,NW,10.4,-,0.12,Rain,Rain,320,2012-11-15 13:55:00
9:15 AM,41.0,41.0,100,30.34,7.0,NW,10.4,18.4,N/A,Rain,Light Rain,310,2012-11-15 14:15:00
9:35 AM,41.0,39.2,93,30.32,7.0,North,10.4,16.1,0.01,Rain,Heavy Rain,360,2012-11-15 14:35:00
9:55 AM,41.0,41.0,100,30.33,2.0,NNE,8.1,-,0.22,Rain,Rain,20,2012-11-15 14:55:00
10:15 AM,42.8,42.8,100,30.32,4.0,NNE,10.4,-,0.05,Rain,Heavy Rain,30,2012-11-15 15:15:00
10:35 AM,42.8,42.8,100,30.30,4.0,NE,11.5,16.1,0.10,Rain,Rain,40,2012-11-15 15:35:00
10:55 AM,42.8,42.8,100,30.30,4.0,NE,9.2,-,0.14,Rain,Rain,40,2012-11-15 15:55:00
11:15 AM,42.8,42.8,100,30.28,3.0,NNE,8.1,-,0.05,Rain,Heavy Rain,20,2012-11-15 16:15:00
11:35 AM,42.8,42.8,100,30.24,4.0,NNE,11.5,18.4,0.11,Rain,Rain,30,2012-11-15 16:35:00
11:55 AM,44.6,44.6,100,30.20,5.0,NE,13.8,21.9,0.12,Rain,Light Rain,50,2012-11-15 16:55:00
12:15 PM,44.6,44.6,100,30.22,7.0,NE,9.2,-,N/A,,Overcast,50,2012-11-15 17:15:00
12:35 PM,44.6,44.6,100,30.23,7.0,NE,6.9,-,N/A,,Overcast,50,2012-11-15 17:35:00
12:55 PM,46.4,46.4,100,30.22,7.0,North,5.8,-,N/A,,Overcast,360,2012-11-15 17:55:00
1:15 PM,44.6,44.6,100,30.21,7.0,North,6.9,-,N/A,,Overcast,350,2012-11-15 18:15:00
1:35 PM,44.6,44.6,100,30.20,7.0,North,9.2,-,N/A,,Overcast,350,2012-11-15 18:35:00
1:55 PM,44.6,44.6,100,30.20,7.0,NNW,6.9,-,N/A,,Overcast,340,2012-11-15 18:55:00
2:15 PM,46.4,46.4,100,30.23,7.0,NW,3.5,-,N/A,,Overcast,320,2012-11-15 19:15:00
2:35 PM,46.4,46.4,100,30.22,7.0,NNW,8.1,-,N/A,,Overcast,340,2012-11-15 19:35:00
2:55 PM,44.6,44.6,100,30.21,5.0,NNW,9.2,-,N/A,,Overcast,330,2012-11-15 19:55:00
3:15 PM,44.6,44.6,100,30.22,5.0,NW,9.2,-,N/A,,Overcast,320,2012-11-15 20:15:00
3:35 PM,44.6,44.6,100,30.23,5.0,NNW,6.9,-,N/A,,Overcast,330,2012-11-15 20:35:00
3:55 PM,44.6,44.6,100,30.23,5.0,NNW,6.9,-,N/A,,Overcast,340,2012-11-15 20:55:00
4:15 PM,44.6,44.6,100,30.23,5.0,North,8.1,-,N/A,,Overcast,350,2012-11-15 21:15:00
4:35 PM,44.6,44.6,100,30.23,5.0,North,9.2,-,N/A,,Overcast,350,2012-11-15 21:35:00
4:55 PM,44.6,44.6,100,30.23,5.0,North,5.8,-,N/A,,Overcast,350,2012-11-15 21:55:00
5:15 PM,44.6,44.6,100,30.23,5.0,North,8.1,-,N/A,,Overcast,350,2012-11-15 22:15:00
5:35 PM,44.6,44.6,100,30.23,5.0,North,8.1,-,N/A,,Overcast,350,2012-11-15 22:35:00
5:55 PM,44.6,44.6,100,30.23,5.0,North,5.8,-,N/A,,Overcast,360,2012-11-15 22:55:00
6:15 PM,44.6,44.6,100,30.24,5.0,North,4.6,-,N/A,,Overcast,360,2012-11-15 23:15:00
6:35 PM,44.6,44.6,100,30.24,7.0,North,4.6,-,N/A,,Overcast,360,2012-11-15 23:35:00
6:55 PM,44.6,44.6,100,30.24,7.0,North,4.6,-,N/A,,Overcast,360,2012-11-15 23:55:00
7:15 PM,44.6,44.6,100,30.24,7.0,North,3.5,-,N/A,,Overcast,360,2012-11-16 00:15:00
7:55 PM,44.6,44.6,100,30.24,7.0,NNW,3.5,-,N/A,,Overcast,340,2012-11-16 00:55:00
8:35 PM,44.6,44.6,100,30.25,7.0,North,4.6,-,N/A,,Overcast,350,2012-11-16 01:35:00
8:55 PM,44.6,44.6,100,30.25,7.0,North,5.8,-,N/A,,Overcast,350,2012-11-16 01:55:00
9:15 PM,44.6,44.6,100,30.25,7.0,NNW,5.8,-,N/A,,Overcast,330,2012-11-16 02:15:00
9:35 PM,44.6,44.6,100,30.26,7.0,NNW,5.8,-,N/A,,Overcast,340,2012-11-16 02:35:00
10:15 PM,44.6,44.6,100,30.25,7.0,NNW,5.8,-,N/A,,Overcast,340,2012-11-16 03:15:00
10:35 PM,44.6,44.6,100,30.26,7.0,NNW,4.6,-,N/A,,Overcast,340,2012-11-16 03:35:00
10:55 PM,44.6,44.6,100,30.25,7.0,North,5.8,-,N/A,,Overcast,350,2012-11-16 03:55:00
11:15 PM,44.6,44.6,100,30.25,7.0,North,4.6,-,N/A,,Overcast,350,2012-11-16 04:15:00
11:35 PM,44.6,44.6,100,30.25,7.0,North,3.5,-,N/A,,Overcast,10,2012-11-16 04:35:00
11:55 PM,44.6,44.6,100,30.24,7.0,North,4.6,-,N/A,,Overcast,360,2012-11-16 04:55:00